Tracking 30402 objects as of 12-May-2025
HD Live streaming from Space Station
objects crossing your sky now

TABLETSAT AURORA

Track TABLETSAT AURORA now!
10-day predictions
TABLETSAT AURORA is classified as:


NORAD ID: 40017
Int'l Code: 2014-033H
Perigee: 529.9 km
Apogee: 550.0 km
Inclination: 98.1 °
Period: 95.3 minutes
Semi major axis: 6910 km
RCS: Unknown
Launch date: June 19, 2014
Source: Commonwealth of Independent States (former USSR) (CIS)
Launch site: Orenburg, Russia (OREN)

Uplink (MHz):
Downlink (MHz): 435.550/436.100
Beacon (MHz): 437.050
Mode: 9600bps GMSK D-STAR
Call sign:
Status: Inactive

Your satellite tracking list
Your tracking list is empty




NASA's NSSDC Master Catalog

Two Line Element Set (TLE):
1 40017U 14033H   25132.51402876  .00006502  00000-0  39145-3 0  9997
2 40017  98.0751 178.6914 0014591 136.9466 223.2906 15.11106394594581
Source of the keplerian elements: AFSPC